Regional Weather Roundup
Issued by NWS Charleston, WV

Home | Current Version | Previous Version | Graphics & Text | Print | Product List | Glossary On
Versions: 1 2 3 4 5 6 7 8 9 10 11 12 13 14 15 16 17 18 19 20 21 22 23 24 25 26 27 28 29 30 31 32 33 34 35 36 37 38 39 40 41 42 43 44 45 46 47 48 49 50
000
ASUS41 KRLX 301110
RWRRLX
West Virginia Regional Weather Roundup
National Weather Service Charleston WV
700 AM EDT MON MAY 30 2016

Note: "fair" indicates few or no clouds below 12,000 feet with no
significant weather and/or obstructions to visibility.

WVZ003-301200-
Northern Panhandle of West Virginia

CITY           SKY/WX    TMP DP  RH WIND       PRES   REMARKS
WHEELING       FOG       63  61  93 SW5       30.03S VSB 1/4
$$

WVZ009-301200-
Northwest West Virginia

CITY           SKY/WX    TMP DP  RH WIND       PRES   REMARKS
PARKERSBURG    FOG       62  61  96 CALM      30.05S VSB 1/8
$$

WVZ006-301200-
Western West Virginia

CITY           SKY/WX    TMP DP  RH WIND       PRES   REMARKS
HUNTINGTON       N/A     65  61  87 CALM      30.03R
$$

WVZ015-301200-
West Central West Virginia

CITY           SKY/WX    TMP DP  RH WIND       PRES   REMARKS
CHARLESTON       N/A     62  61  96 SE3       30.03S FOG
$$

WVZ022-031-301200-
North Central West Virginia

CITY           SKY/WX    TMP DP  RH WIND       PRES   REMARKS
CLARKSBURG       N/A     60  59  96 CALM      30.05R
MORGANTOWN       N/A     63  58  83 CALM      30.06R
$$

WVZ025-035-042-045-301200-
Southern West Virginia

CITY           SKY/WX    TMP DP  RH WIND       PRES   REMARKS
BECKLEY          N/A     59  56  89 CALM      30.10S
LOGAN            N/A     63  61  94 CALM      30.05S
BLUEFIELD      FOG       56  55  97 CALM      30.12S VSB<1/4
LEWISBURG      FOG       54  54  99 CALM      30.11S VSB<1/4
$$

WVZ047-301200-
Northern Mountains of West Virginia

CITY           SKY/WX    TMP DP  RH WIND       PRES   REMARKS
ELKINS           N/A     57  54  89 CALM      30.10S
$$

WVZ052-301200-
Eastern Panhandle of West Virginia

CITY           SKY/WX    TMP DP  RH WIND       PRES   REMARKS
MARTINSBURG    CLOUDY    63  62  97 SE3       30.04R FOG
PETERSBURG     PTSUNNY   60  59  97 CALM      30.07S
$$



USA.gov is the U.S. government's official web portal to all federal, state and local government web resources and services.